Location: Vista Encantada
(35.1109°N, 106.5681°W)
Time: 08:44:38
(UTC+00:00)

ALOS - Pass Details

Date: 29 October 2020
Orbit: 684 x 684 km, 97.9° (Epoch: 04 December)

Event Time Altitude Azimuth Distance (km) Brightness Sun altitude
Rises 12:20:41 0° 0° (N) 3,053 5.5 -13.7°
Reaches altitude 10° 12:23:07 10° 351° (N) 2,134 4.6 -13.2°
Maximum altitude 12:27:13 32° 289° (WNW) 1,179 2.9 -12.4°
Drops below altitude 10° 12:31:19 10° 227° (SW) 2,122 4.4 -11.6°
Sets 12:33:44 0° 217° (SW) 3,033 5.3 -11.1°
